Regional Weather Roundup
Issued by NWS Bismarck, ND

Home | Current Version | Previous Version | Text Only | Print | Product List | Glossary On
Versions: 1 2 3 4 5 6 7 8 9 10 11 12 13 14 15 16 17 18 19 20 21 22 23 24 25 26 27 28 29 30 31 32 33 34 35 36 37 38 39 40 41 42 43 44 45 46 47 48 49 50
000
ASUS43 KBIS 012320
RWRBIS

NWR BROADCAST TEXT
NATIONAL WEATHER SERVICE BISMARCK ND
600 PM CDT FRI AUG 01 2014

NOTE: "FAIR" INDICATES FEW OR NO CLOUDS BELOW 12,000 FEET WITH NO
SIGNIFICANT WEATHER AND/OR OBSTRUCTIONS TO VISIBILITY.


CITY           SKY/WX    TMP DP  RH WIND       PRES   REMARKS
WILLISTON      SUNNY     84  51  31 CALM      30.08F
MINOT          CLOUDY    79  60  52 NE5       30.07S
MINOT AFB      CLOUDY    81  61  50 NE2       30.06F
BISMARCK       PTSUNNY   87  57  35 E12       30.04S
DICKINSON      MOSUNNY   85  59  41 E13       30.06S
GARRISON         N/A     76  69  79 N3        30.08R
HETTINGER ARPT SUNNY     89  51  27 E6        30.04F
JAMESTOWN      MOSUNNY   80  59  48 CALM      30.07S
CARRINGTON     FAIR      81  59  47 E7        30.09S
CROSBY         FAIR      81  57  44 S5        30.08F
HARVEY         FAIR      77  63  61 E7        30.07F
HAZEN          FAIR      77  63  61 N7        30.07S
LINTON         FAIR      81  63  54 SE9       30.04R
MANDAN         FAIR      82  57  42 E7        30.05F
RUGBY          FAIR      77  61  57 SE6       30.07S
STANLEY        FAIR      77  59  53 S8        30.10F
TIOGA          FAIR      79  55  44 E6        30.13S
WATFORD CITY   FAIR      82  54  36 NE7       30.07F
$$

CITY           SKY/WX    TMP DP  RH WIND       PRES   REMARKS
GRAND FORKS    MOSUNNY   82  59  45 NE6       30.06S
GRAND FORKS AF MOSUNNY   81  60  48 N1        30.07S
DEVILS LAKE    PTSUNNY   79  57  47 SE7       30.07S
FARGO          MOSUNNY   82  55  39 N10       30.06S
CANDO          FAIR      79  57  47 S6        30.08F
CAVALIER       FAIR      82  59  44 CALM      30.05F
GRAFTON        FAIR      81  59  47 N3        30.05F
GWINNER        PTCLDY    82  61  47 CALM      30.08S
LANGDON        FAIR      81  59  47 SW6       30.09S
ROLLA            N/A     77  57  50 S5        30.11R
WALHALLA       FAIR      77  64  65 SW3         N/A
$$

CITY           SKY/WX    TMP DP  RH WIND       PRES   REMARKS
ABERDEEN       SUNNY     83  54  36 E7        30.06S
MOBRIDGE       MOSUNNY   86  58  38 SE10      30.00S
BUFFALO          N/A     90  50  25 N9        29.99S
RAPID CITY     PTSUNNY   81  49  32 W6        30.09R
GLASGOW        RAIN      73  61  65 N12G30    30.06R
SIDNEY         SUNNY     88  54  31 NE10      30.08S
WOLF POINT     SUNNY     91  48  22 SE7       30.04F
GLENDIVE       SUNNY     88  52  29 E9        30.07F
MILES CITY     MOSUNNY   94  36  13 N12G22    30.03F
BAKER          MOSUNNY   91  49  23 E15       30.06F
$$

CITY           SKY/WX    TMP DP  RH WIND       PRES   REMARKS
BILLINGS       MOSUNNY   92  36  14 E14       30.11F
GREAT FALLS    MOSUNNY   89  38  16 VRB5      30.12F
REGINA         MOSUNNY   82  59  44 SW6       30.06F
ESTEVAN        MOSUNNY   81  59  47 SE2       30.08F
$$



USA.gov is the U.S. government's official web portal to all federal, state and local government web resources and services.